| time (UTC) | temp C | wind direction | speed KPH | gust KPH | rain 1hr cm | rain 24hr cm | rain mn cm | humidity % | barometer mb |
| 20260506095517 | 3 | 135 | 1.6 | 4.8 | 0.00 | 0.00 | 0.00 | 61 | 1015.3 |
| 20260506094518 | 3 | 135 | 1.6 | 4.8 | 0.00 | 0.00 | 0.00 | 61 | 1015.2 |
| 20260506093517 | 3 | 135 | 3.2 | 4.8 | 0.00 | 0.00 | 0.00 | 61 | 1014.9 |
| 20260506092518 | 3 | 135 | 3.2 | 6.4 | 0.00 | 0.00 | 0.00 | 60 | 1014.9 |
| 20260506091517 | 3 | 135 | 1.6 | 4.8 | 0.00 | 0.00 | 0.00 | 60 | 1014.9 |
| 20260506090537 | 3 | 135 | 3.2 | 6.4 | 0.00 | 0.00 | 0.00 | 60 | 1014.8 |
| 20260506085557 | 3 | 135 | 3.2 | 6.4 | 0.00 | 0.00 | 0.00 | 61 | 1014.9 |
| 20260506084518 | 3 | 135 | 3.2 | 6.4 | 0.00 | 0.00 | 0.00 | 61 | 1014.7 |
| 20260506083537 | 3 | 135 | 3.2 | 8.0 | 0.00 | 0.00 | 0.00 | 61 | 1014.5 |
| 20260506082517 | 2 | 135 | 1.6 | 6.4 | 0.00 | 0.00 | 0.00 | 62 | 1014.7 |
| 20260506081517 | 2 | 135 | 1.6 | 6.4 | 0.00 | 0.00 | 0.00 | 62 | 1014.7 |
| 20260506080537 | 2 | 0.0 | 0.0 | 0.00 | 0.00 | 0.00 | 63 | 1014.3 | |
| 20260506073517 | 2 | 0.0 | 0.0 | 0.00 | 0.00 | 0.00 | 62 | 1014.7 | |
| 20260506072517 | 2 | 0.0 | 0.0 | 0.00 | 0.00 | 0.00 | 61 | 1014.5 | |
| 20260506071517 | 2 | 0.0 | 0.0 | 0.00 | 0.00 | 0.00 | 61 | 1014.4 | |
| 20260506070517 | 2 | 0.0 | 0.0 | 0.00 | 0.00 | 0.00 | 61 | 1014.3 | |
| 20260506062517 | 3 | 0.0 | 0.0 | 0.00 | 0.00 | 0.00 | 58 | 1014.0 | |
| 20260506061517 | 3 | 0.0 | 0.0 | 0.00 | 0.00 | 0.00 | 58 | 1014.2 | |
| 20260506060517 | 3 | 0.0 | 0.0 | 0.00 | 0.00 | 0.00 | 58 | 1014.2 | |
| 20260506050537 | 4 | 158 | 3.2 | 4.8 | 0.00 | 0.00 | 0.00 | 54 | 1014.1 |
| 20260506044517 | 5 | 0 | 1.6 | 3.2 | 0.00 | 0.00 | 0.00 | 53 | 1013.9 |
| 20260506043517 | 5 | 0 | 1.6 | 3.2 | 0.00 | 0.00 | 0.00 | 52 | 1014.0 |
| 20260506042517 | 5 | 0 | 1.6 | 3.2 | 0.00 | 0.00 | 0.00 | 52 | 1013.9 |
| 20260506041517 | 5 | 0 | 1.6 | 6.4 | 0.00 | 0.00 | 0.00 | 52 | 1013.8 |
| 20260506040517 | 6 | 158 | 3.2 | 9.7 | 0.00 | 0.00 | 0.00 | 51 | 1013.8 |
| 20260506035537 | 6 | 158 | 1.6 | 4.8 | 0.00 | 0.00 | 0.00 | 50 | 1013.8 |
| 20260506034517 | 6 | 158 | 3.2 | 9.7 | 0.00 | 0.00 | 0.00 | 49 | 1013.6 |
| 20260506033517 | 6 | 135 | 3.2 | 6.4 | 0.00 | 0.00 | 0.00 | 48 | 1013.6 |
| 20260506032517 | 6 | 158 | 4.8 | 12.9 | 0.00 | 0.00 | 0.00 | 48 | 1013.6 |
| 20260506031517 | 7 | 158 | 4.8 | 11.3 | 0.00 | 0.00 | 0.00 | 47 | 1013.4 |
| 20260506030517 | 7 | 158 | 3.2 | 12.9 | 0.00 | 0.00 | 0.00 | 46 | 1013.4 |
| 20260506025517 | 7 | 158 | 3.2 | 11.3 | 0.00 | 0.00 | 0.00 | 45 | 1013.3 |
| 20260506024517 | 7 | 158 | 9.7 | 22.5 | 0.00 | 0.00 | 0.00 | 44 | 1013.2 |
| 20260506023517 | 8 | 158 | 6.4 | 16.1 | 0.00 | 0.00 | 0.00 | 44 | 1013.2 |
| 20260506022517 | 8 | 158 | 4.8 | 14.5 | 0.00 | 0.00 | 0.00 | 44 | 1012.9 |
| 20260506021517 | 8 | 135 | 6.4 | 14.5 | 0.00 | 0.00 | 0.00 | 43 | 1012.6 |
| 20260506020517 | 8 | 158 | 6.4 | 16.1 | 0.00 | 0.00 | 0.00 | 43 | 1012.5 |
| 20260506015557 | 8 | 135 | 4.8 | 12.9 | 0.00 | 0.00 | 0.00 | 43 | 1012.4 |
| 20260506014517 | 8 | 135 | 8.0 | 17.7 | 0.00 | 0.00 | 0.00 | 42 | 1012.3 |
| 20260506013517 | 9 | 135 | 8.0 | 14.5 | 0.00 | 0.00 | 0.00 | 41 | 1012.1 |
| 20260506012537 | 9 | 135 | 8.0 | 16.1 | 0.00 | 0.00 | 0.00 | 40 | 1012.0 |
| 20260506011517 | 9 | 158 | 6.4 | 17.7 | 0.00 | 0.00 | 0.00 | 40 | 1011.7 |
| 20260506010516 | 10 | 158 | 9.7 | 19.3 | 0.00 | 0.00 | 0.00 | 39 | 1011.8 |
| 20260506005517 | 10 | 135 | 8.0 | 19.3 | 0.00 | 0.00 | 0.00 | 39 | 1011.5 |
| 20260506004517 | 10 | 135 | 11.3 | 24.1 | 0.00 | 0.00 | 0.00 | 37 | 1011.3 |
| 20260506003517 | 10 | 135 | 6.4 | 16.1 | 0.00 | 0.00 | 0.00 | 37 | 1011.2 |
| 20260506002516 | 10 | 158 | 9.7 | 20.9 | 0.00 | 0.00 | 0.00 | 37 | 1011.1 |
| 20260506001516 | 10 | 135 | 11.3 | 17.7 | 0.00 | 0.00 | 0.00 | 36 | 1011.0 |
| 20260506000518 | 10 | 135 | 8.0 | 20.9 | 0.00 | 0.00 | 0.00 | 35 | 1011.0 |
| 20260505235517 | 10 | 135 | 8.0 | 16.1 | 0.00 | 0.00 | 0.00 | 36 | 1010.8 |
| 20260505234517 | 11 | 135 | 9.7 | 17.7 | 0.00 | 0.00 | 0.00 | 35 | 1010.8 |
| 20260505233517 | 11 | 135 | 11.3 | 25.7 | 0.00 | 0.00 | 0.00 | 34 | 1010.7 |
| 20260505232516 | 11 | 135 | 11.3 | 25.7 | 0.00 | 0.00 | 0.00 | 34 | 1010.7 |
| 20260505231517 | 11 | 135 | 11.3 | 20.9 | 0.00 | 0.00 | 0.00 | 34 | 1010.7 |
| 20260505230516 | 11 | 135 | 9.7 | 17.7 | 0.00 | 0.00 | 0.00 | 35 | 1010.5 |
| 20260505225517 | 11 | 135 | 9.7 | 22.5 | 0.00 | 0.00 | 0.00 | 35 | 1010.4 |
| 20260505224516 | 11 | 135 | 12.9 | 29.0 | 0.00 | 0.00 | 0.00 | 34 | 1010.5 |
| 20260505223517 | 11 | 135 | 9.7 | 19.3 | 0.00 | 0.00 | 0.00 | 34 | 1010.5 |
| 20260505222516 | 12 | 135 | 11.3 | 17.7 | 0.00 | 0.00 | 0.00 | 34 | 1010.5 |
| 20260505221517 | 12 | 135 | 9.7 | 19.3 | 0.00 | 0.00 | 0.00 | 33 | 1010.5 |
| 20260505220516 | 12 | 135 | 9.7 | 19.3 | 0.00 | 0.00 | 0.00 | 33 | 1010.5 |
| 20260505215516 | 12 | 135 | 9.7 | 19.3 | 0.00 | 0.00 | 0.00 | 34 | 1010.6 |
| 20260505214516 | 12 | 135 | 12.9 | 24.1 | 0.00 | 0.00 | 0.00 | 32 | 1010.6 |
| 20260505213516 | 12 | 135 | 12.9 | 22.5 | 0.00 | 0.00 | 0.00 | 33 | 1010.7 |
| 20260505212517 | 12 | 135 | 9.7 | 17.7 | 0.00 | 0.00 | 0.00 | 33 | 1010.5 |
| 20260505211516 | 12 | 135 | 9.7 | 20.9 | 0.00 | 0.00 | 0.00 | 32 | 1010.7 |
| 20260505210516 | 12 | 135 | 8.0 | 14.5 | 0.00 | 0.00 | 0.00 | 32 | 1010.6 |
| 20260505205516 | 12 | 135 | 11.3 | 17.7 | 0.00 | 0.00 | 0.00 | 33 | 1010.7 |
| 20260505204516 | 12 | 135 | 11.3 | 19.3 | 0.00 | 0.00 | 0.00 | 32 | 1010.8 |
| 20260505203516 | 12 | 135 | 11.3 | 24.1 | 0.00 | 0.00 | 0.00 | 33 | 1010.9 |
| 20260505202536 | 13 | 135 | 11.3 | 19.3 | 0.00 | 0.00 | 0.00 | 33 | 1011.0 |
| 20260505201516 | 13 | 135 | 11.3 | 22.5 | 0.00 | 0.00 | 0.00 | 32 | 1011.0 |
| 20260505200516 | 12 | 135 | 8.0 | 19.3 | 0.00 | 0.00 | 0.00 | 34 | 1011.0 |
| 20260505195537 | 12 | 135 | 9.7 | 16.1 | 0.00 | 0.00 | 0.00 | 34 | 1011.2 |
| 20260505194516 | 12 | 135 | 8.0 | 19.3 | 0.00 | 0.00 | 0.00 | 33 | 1011.3 |
| 20260505193516 | 12 | 135 | 11.3 | 22.5 | 0.00 | 0.00 | 0.00 | 32 | 1011.3 |
| 20260505192537 | 11 | 135 | 4.8 | 12.9 | 0.00 | 0.00 | 0.00 | 37 | 1011.2 |
| 20260505191516 | 11 | 135 | 12.9 | 22.5 | 0.00 | 0.00 | 0.00 | 36 | 1011.3 |
| 20260505190516 | 11 | 135 | 4.8 | 12.9 | 0.00 | 0.00 | 0.00 | 37 | 1011.3 |
| 20260505185516 | 11 | 135 | 11.3 | 19.3 | 0.00 | 0.00 | 0.00 | 35 | 1011.4 |
| 20260505184516 | 12 | 135 | 11.3 | 17.7 | 0.00 | 0.00 | 0.00 | 36 | 1011.3 |
| 20260505183516 | 12 | 135 | 8.0 | 14.5 | 0.00 | 0.00 | 0.00 | 37 | 1011.4 |
| 20260505182517 | 11 | 135 | 8.0 | 14.5 | 0.00 | 0.00 | 0.00 | 37 | 1011.3 |
| 20260505181517 | 11 | 0 | 9.7 | 17.7 | 0.00 | 0.00 | 0.00 | 35 | 1011.3 |
| 20260505180537 | 11 | 135 | 8.0 | 16.1 | 0.00 | 0.00 | 0.00 | 39 | 1011.2 |
| 20260505175517 | 11 | 135 | 12.9 | 24.1 | 0.00 | 0.00 | 0.00 | 37 | 1011.3 |
| 20260505174516 | 11 | 135 | 11.3 | 17.7 | 0.00 | 0.00 | 0.00 | 38 | 1011.3 |
| 20260505173517 | 11 | 135 | 11.3 | 19.3 | 0.00 | 0.00 | 0.00 | 36 | 1011.3 |
| 20260505172516 | 12 | 135 | 11.3 | 19.3 | 0.00 | 0.00 | 0.00 | 35 | 1011.3 |
| 20260505171516 | 12 | 135 | 9.7 | 20.9 | 0.00 | 0.00 | 0.00 | 37 | 1011.1 |
| 20260505170516 | 12 | 135 | 9.7 | 16.1 | 0.00 | 0.00 | 0.00 | 35 | 1011.1 |
| 20260505165516 | 12 | 135 | 11.3 | 17.7 | 0.00 | 0.00 | 0.00 | 39 | 1011.1 |
| 20260505164516 | 10 | 135 | 9.7 | 19.3 | 0.00 | 0.00 | 0.00 | 40 | 1011.1 |
| 20260505163516 | 10 | 135 | 9.7 | 25.7 | 0.00 | 0.00 | 0.00 | 39 | 1011.2 |
| 20260505162516 | 11 | 135 | 9.7 | 19.3 | 0.00 | 0.00 | 0.00 | 38 | 1011.1 |
| 20260505161517 | 11 | 135 | 8.0 | 16.1 | 0.00 | 0.00 | 0.00 | 41 | 1011.2 |
| 20260505160516 | 10 | 135 | 9.7 | 20.9 | 0.00 | 0.00 | 0.00 | 43 | 1011.2 |
| 20260505152536 | 10 | 135 | 6.4 | 14.5 | 0.00 | 0.00 | 0.00 | 51 | 1011.2 |
| 20260505151516 | 8 | 135 | 4.8 | 14.5 | 0.00 | 0.00 | 0.00 | 52 | 1011.2 |
| 20260505150516 | 8 | 158 | 4.8 | 17.7 | 0.00 | 0.00 | 0.00 | 50 | 1011.1 |
| 20260505140517 | 7 | 135 | 3.2 | 11.3 | 0.00 | 0.00 | 0.00 | 54 | 1010.6 |
| 20260505124516 | 5 | 135 | 1.6 | 4.8 | 0.00 | 0.00 | 0.00 | 66 | 1010.0 |
| 20260505123515 | 4 | 135 | 1.6 | 4.8 | 0.00 | 0.00 | 0.00 | 69 | 1009.8 |
| 20260505122516 | 3 | 135 | 3.2 | 4.8 | 0.00 | 0.00 | 0.00 | 70 | 1009.8 |
| 20260505121516 | 3 | 135 | 3.2 | 4.8 | 0.00 | 0.00 | 0.00 | 72 | 1009.5 |
| 20260505120516 | 2 | 135 | 1.6 | 4.8 | 0.00 | 0.00 | 0.00 | 73 | 1009.4 |
| 20260505115516 | 2 | 135 | 1.6 | 3.2 | 0.00 | 0.00 | 0.00 | 73 | 1009.2 |
| 20260505114515 | 2 | 0.0 | 3.2 | 0.00 | 0.00 | 0.00 | 73 | 1008.9 | |
| 20260505113516 | 2 | 0.0 | 1.6 | 0.00 | 0.00 | 0.00 | 72 | 1008.6 | |
| 20260505112516 | 2 | 0.0 | 0.0 | 0.00 | 0.00 | 0.00 | 71 | 1008.6 | |
| 20260505111516 | 2 | 0.0 | 0.0 | 0.00 | 0.00 | 0.00 | 71 | 1008.6 | |
| 20260505110516 | 2 | 0.0 | 3.2 | 0.00 | 0.00 | 0.00 | 71 | 1008.4 | |
| 20260505101516 | 2 | 135 | 1.6 | 3.2 | 0.00 | 0.00 | 0.00 | 70 | 1008.1 |
| 20260505100516 | 2 | 135 | 1.6 | 3.2 | 0.00 | 0.00 | 0.00 | 70 | 1008.3 |